Location: Suzhou
(31.3110°N, 120.6180°E)
Time: 15:51:47
(UTC+08:00)

Tiangong - Visible Passes

Search period start: 27 February 2024 00:00
Search period end: 08 March 2024 00:00
Orbit: 375 x 385 km, 41.5° (Epoch: 26 February)

Date Brightness Start Highest point End Pass type
(mag) Time Alt. Az. Time Alt. Az. Time Alt. Az.
27 Feb -0.9 19:31:43 10° W 19:34:13 40° NW 19:34:13 40° NW visible
28 Feb -2.2 18:30:30 10° WSW 18:33:36 89° SE 18:36:23 12° ENE visible
28 Feb 1.3 20:08:18 10° WNW 20:08:31 11° WNW 20:08:31 11° WNW visible
29 Feb -0.5 19:06:31 10° W 19:09:15 27° NNW 19:10:31 20° NNE visible
01 Mar 0.6 19:43:11 10° NW 19:44:30 14° NNW 19:44:30 14° NNW visible
02 Mar 0.0 18:41:11 10° WNW 18:43:32 19° NNW 18:45:54 10° NNE visible
03 Mar 0.4 19:17:44 10° NW 19:19:19 13° N 19:19:57 13° N visible
04 Mar 1.0 19:53:25 10° NNW 19:53:33 10° NNW 19:53:33 10° NNW visible
05 Mar 0.4 18:51:46 10° NNW 18:53:14 13° N 18:54:42 10° NNE visible
06 Mar 0.2 19:26:49 10° NNW 19:28:26 16° N 19:28:26 16° N visible
07 Mar 0.3 18:25:14 10° NNW 18:26:50 13° N 18:28:27 10° NE visible
07 Mar 0.9 20:01:20 10° NW 20:01:50 13° NW 20:01:50 13° NW visible
